Year,Month,Day,Hour,Minute,Value (Times are PST for temperature in C)
2011,05,29,00,00,11.00
2011,05,29,00,01,10.90
2011,05,29,00,02,11.00
2011,05,29,00,03,10.90
2011,05,29,00,04,11.00
2011,05,29,00,05,11.00
2011,05,29,00,06,11.00
2011,05,29,00,07,10.90
2011,05,29,00,08,10.90
2011,05,29,00,09,10.90
2011,05,29,00,10,10.90
2011,05,29,00,11,10.90
2011,05,29,00,12,10.80
2011,05,29,00,13,10.80
2011,05,29,00,14,10.70
2011,05,29,00,15,10.70
2011,05,29,00,16,10.60
2011,05,29,00,17,10.60
2011,05,29,00,18,10.60
2011,05,29,00,19,10.60
2011,05,29,00,20,10.60
2011,05,29,00,21,10.60
2011,05,29,00,22,10.60
2011,05,29,00,23,10.60
2011,05,29,00,24,10.60
2011,05,29,00,25,10.60
2011,05,29,00,26,10.60
2011,05,29,00,27,10.60
2011,05,29,00,28,10.60
2011,05,29,00,29,10.60
2011,05,29,00,30,10.60
2011,05,29,00,31,10.60
2011,05,29,00,32,10.60
2011,05,29,00,33,10.60
2011,05,29,00,34,10.50
2011,05,29,00,35,10.50
2011,05,29,00,36,10.50
2011,05,29,00,37,10.50
2011,05,29,00,38,10.50
2011,05,29,00,39,10.50
2011,05,29,00,40,10.50
2011,05,29,00,41,10.50
2011,05,29,00,42,10.50
2011,05,29,00,43,10.50
2011,05,29,00,44,10.50
2011,05,29,00,45,10.50
2011,05,29,00,46,10.60
2011,05,29,00,47,10.60
2011,05,29,00,48,10.60
2011,05,29,00,49,10.50
2011,05,29,00,50,10.50
2011,05,29,00,51,10.50
2011,05,29,00,52,10.50
2011,05,29,00,53,10.60
2011,05,29,00,54,10.60
2011,05,29,00,55,10.70
2011,05,29,00,56,10.70
2011,05,29,00,57,10.70
2011,05,29,00,58,10.70
2011,05,29,00,59,10.70
2011,05,29,01,00,10.80
2011,05,29,01,01,10.80
2011,05,29,01,02,10.90
2011,05,29,01,03,11.00
2011,05,29,01,04,11.00
2011,05,29,01,05,11.10
2011,05,29,01,06,11.20
2011,05,29,01,07,11.30
2011,05,29,01,08,11.40
2011,05,29,01,09,11.40
2011,05,29,01,10,11.50
2011,05,29,01,11,11.50
2011,05,29,01,12,11.60
2011,05,29,01,13,11.60
2011,05,29,01,14,11.60
2011,05,29,01,15,11.60
2011,05,29,01,16,11.60
2011,05,29,01,17,11.70
2011,05,29,01,18,11.70
2011,05,29,01,19,11.70
2011,05,29,01,20,11.80
2011,05,29,01,21,11.80
2011,05,29,01,22,11.80
2011,05,29,01,23,11.80
2011,05,29,01,24,11.80
2011,05,29,01,25,11.80
2011,05,29,01,26,11.90
2011,05,29,01,27,11.90
2011,05,29,01,28,11.90
2011,05,29,01,29,11.90
2011,05,29,01,30,11.90
2011,05,29,01,31,12.00
2011,05,29,01,32,12.00
2011,05,29,01,33,12.00
2011,05,29,01,34,12.00
2011,05,29,01,35,12.10
2011,05,29,01,36,12.10
2011,05,29,01,37,12.10
2011,05,29,01,38,12.10
2011,05,29,01,39,12.10
2011,05,29,01,40,12.10
2011,05,29,01,41,12.10
2011,05,29,01,42,12.00
2011,05,29,01,43,12.10
2011,05,29,01,44,12.10
2011,05,29,01,45,12.10
2011,05,29,01,46,12.10
2011,05,29,01,47,12.10
2011,05,29,01,48,12.10
2011,05,29,01,49,12.10
2011,05,29,01,50,12.10
2011,05,29,01,51,12.00
2011,05,29,01,52,12.00
2011,05,29,01,53,12.00
2011,05,29,01,54,12.00
2011,05,29,01,55,11.90
2011,05,29,01,56,11.90
2011,05,29,01,57,11.90
2011,05,29,01,58,11.90
2011,05,29,01,59,11.90
2011,05,29,02,00,11.90
2011,05,29,02,01,11.80
2011,05,29,02,02,11.80
2011,05,29,02,03,11.90
2011,05,29,02,04,11.90
2011,05,29,02,05,11.90
2011,05,29,02,06,11.90
2011,05,29,02,07,11.90
2011,05,29,02,08,11.80
2011,05,29,02,09,11.80
2011,05,29,02,10,11.80
2011,05,29,02,11,11.80
2011,05,29,02,12,11.80
2011,05,29,02,13,11.80
2011,05,29,02,14,11.80
2011,05,29,02,15,11.80
2011,05,29,02,16,11.80
2011,05,29,02,17,11.70
2011,05,29,02,18,11.70
2011,05,29,02,19,11.70
2011,05,29,02,20,11.70
2011,05,29,02,21,11.70
2011,05,29,02,22,11.70
2011,05,29,02,23,11.70
2011,05,29,02,24,11.70
2011,05,29,02,25,11.70
2011,05,29,02,26,11.70
2011,05,29,02,27,11.60
2011,05,29,02,28,11.60
2011,05,29,02,29,11.60
2011,05,29,02,30,11.60
2011,05,29,02,31,11.60
2011,05,29,02,32,11.60
2011,05,29,02,33,11.60
2011,05,29,02,34,11.50
2011,05,29,02,35,11.50
2011,05,29,02,36,11.50
2011,05,29,02,37,11.40
2011,05,29,02,38,11.40
2011,05,29,02,39,11.40
2011,05,29,02,40,11.40
2011,05,29,02,41,11.40
2011,05,29,02,42,11.40
2011,05,29,02,43,11.30
2011,05,29,02,44,11.30
2011,05,29,02,45,11.30
2011,05,29,02,46,11.30
2011,05,29,02,47,11.30
2011,05,29,02,48,11.30
2011,05,29,02,49,11.30
2011,05,29,02,50,11.20
2011,05,29,02,51,11.20
2011,05,29,02,52,11.20
2011,05,29,02,53,11.20
2011,05,29,02,54,11.20
2011,05,29,02,55,11.30
2011,05,29,02,56,11.30
2011,05,29,02,57,11.30
2011,05,29,02,58,11.30
2011,05,29,02,59,11.40
2011,05,29,03,00,11.40
2011,05,29,03,01,11.40
2011,05,29,03,02,11.40
2011,05,29,03,03,11.40
2011,05,29,03,04,11.40
2011,05,29,03,05,11.40
2011,05,29,03,06,11.40
2011,05,29,03,07,11.40
2011,05,29,03,08,11.40
2011,05,29,03,09,11.30
2011,05,29,03,10,11.30
2011,05,29,03,11,11.30
2011,05,29,03,12,11.30
2011,05,29,03,13,11.30
2011,05,29,03,14,11.30
2011,05,29,03,15,11.30
2011,05,29,03,16,11.30
2011,05,29,03,17,11.30
2011,05,29,03,18,11.30
2011,05,29,03,19,11.30
2011,05,29,03,20,11.30
2011,05,29,03,21,11.30
2011,05,29,03,22,11.30
2011,05,29,03,23,11.30
2011,05,29,03,24,11.30
2011,05,29,03,25,11.30
2011,05,29,03,26,11.30
2011,05,29,03,27,11.30
2011,05,29,03,28,11.30
2011,05,29,03,29,11.30
2011,05,29,03,30,11.30
2011,05,29,03,31,11.30
2011,05,29,03,32,11.30
2011,05,29,03,33,11.30
2011,05,29,03,34,11.30
2011,05,29,03,35,11.30
2011,05,29,03,36,11.30
2011,05,29,03,37,11.30
2011,05,29,03,38,11.30
2011,05,29,03,39,11.30
2011,05,29,03,40,11.30
2011,05,29,03,41,11.30
2011,05,29,03,42,11.30
2011,05,29,03,43,11.30
2011,05,29,03,44,11.30
2011,05,29,03,45,11.30
2011,05,29,03,46,11.20
2011,05,29,03,47,11.20
2011,05,29,03,48,11.20
2011,05,29,03,49,11.20
2011,05,29,03,50,11.20
2011,05,29,03,51,11.30
2011,05,29,03,52,11.30
2011,05,29,03,53,11.30
2011,05,29,03,54,11.30
2011,05,29,03,55,11.30
2011,05,29,03,56,11.30
2011,05,29,03,57,11.30
2011,05,29,03,58,11.20
2011,05,29,03,59,11.20
2011,05,29,04,00,11.20
2011,05,29,04,01,11.20
2011,05,29,04,02,11.20
2011,05,29,04,03,11.20
2011,05,29,04,04,11.20
2011,05,29,04,05,11.10
2011,05,29,04,06,11.10
2011,05,29,04,07,11.10
2011,05,29,04,08,11.10
2011,05,29,04,09,11.10
2011,05,29,04,10,11.10
2011,05,29,04,11,11.10
2011,05,29,04,12,11.10
2011,05,29,04,13,11.10
2011,05,29,04,14,11.10
2011,05,29,04,15,11.10
2011,05,29,04,16,11.10
2011,05,29,04,17,11.10
2011,05,29,04,18,11.10
2011,05,29,04,19,11.10
2011,05,29,04,20,11.10
2011,05,29,04,21,11.10
2011,05,29,04,22,11.20
2011,05,29,04,23,11.10
2011,05,29,04,24,11.10
2011,05,29,04,25,11.10
2011,05,29,04,26,11.10
2011,05,29,04,27,11.10
2011,05,29,04,28,11.10
2011,05,29,04,29,11.10
2011,05,29,04,30,11.10
2011,05,29,04,31,11.10
2011,05,29,04,32,11.10
2011,05,29,04,33,11.10
2011,05,29,04,34,11.10
2011,05,29,04,35,11.10
2011,05,29,04,36,11.10
2011,05,29,04,37,11.10
2011,05,29,04,38,11.10
2011,05,29,04,39,11.10
2011,05,29,04,40,11.10
2011,05,29,04,41,11.20
2011,05,29,04,42,11.10
2011,05,29,04,43,11.10
2011,05,29,04,44,11.10
2011,05,29,04,45,11.10
2011,05,29,04,46,11.10
2011,05,29,04,47,11.00
2011,05,29,04,48,11.00
2011,05,29,04,49,11.00
2011,05,29,04,50,10.90
2011,05,29,04,51,10.90
2011,05,29,04,52,10.90
2011,05,29,04,53,10.90
2011,05,29,04,54,10.90
2011,05,29,04,55,11.00
2011,05,29,04,56,11.00
2011,05,29,04,57,11.00
2011,05,29,04,58,11.00
2011,05,29,04,59,11.00
2011,05,29,05,00,11.00
2011,05,29,05,01,11.00
2011,05,29,05,02,11.00
2011,05,29,05,03,11.00
2011,05,29,05,04,11.00
2011,05,29,05,05,11.00
2011,05,29,05,06,11.10
2011,05,29,05,07,11.10
2011,05,29,05,08,11.10
2011,05,29,05,09,11.10
2011,05,29,05,10,11.10
2011,05,29,05,11,11.10
2011,05,29,05,12,11.10
2011,05,29,05,13,11.20
2011,05,29,05,14,11.20
2011,05,29,05,15,11.20
2011,05,29,05,16,11.20
2011,05,29,05,17,11.20
2011,05,29,05,18,11.20
2011,05,29,05,19,11.20
2011,05,29,05,20,11.20
2011,05,29,05,21,11.20
2011,05,29,05,22,11.20
2011,05,29,05,23,11.20
2011,05,29,05,24,11.20
2011,05,29,05,25,11.20
2011,05,29,05,26,11.20
2011,05,29,05,27,11.20
2011,05,29,05,28,11.20
2011,05,29,05,29,11.20
2011,05,29,05,30,11.20
2011,05,29,05,31,11.20
2011,05,29,05,32,11.20
2011,05,29,05,33,11.20
2011,05,29,05,34,11.20
2011,05,29,05,35,11.20
2011,05,29,05,36,11.20
2011,05,29,05,37,11.20
2011,05,29,05,38,11.20
2011,05,29,05,39,11.10
2011,05,29,05,40,11.10
2011,05,29,05,41,11.10
2011,05,29,05,42,11.10
2011,05,29,05,43,11.10
2011,05,29,05,44,11.10
2011,05,29,05,45,11.10
2011,05,29,05,46,11.10
2011,05,29,05,47,11.10
2011,05,29,05,48,11.10
2011,05,29,05,49,11.10
2011,05,29,05,50,11.10
2011,05,29,05,51,11.10
2011,05,29,05,52,11.10
2011,05,29,05,53,11.10
2011,05,29,05,54,11.10
2011,05,29,05,55,11.10
2011,05,29,05,56,11.10
2011,05,29,05,57,11.00
2011,05,29,05,58,11.00
2011,05,29,05,59,11.00
2011,05,29,06,00,11.00
2011,05,29,06,01,11.00
2011,05,29,06,02,11.00
2011,05,29,06,03,11.00
2011,05,29,06,04,11.00
2011,05,29,06,05,10.90
2011,05,29,06,06,10.90
2011,05,29,06,07,10.90
2011,05,29,06,08,10.90
2011,05,29,06,09,10.90
2011,05,29,06,10,10.90
2011,05,29,06,11,10.90
2011,05,29,06,12,10.90
2011,05,29,06,13,10.90
2011,05,29,06,14,10.90
2011,05,29,06,15,10.90
2011,05,29,06,16,10.90
2011,05,29,06,17,10.90
2011,05,29,06,18,10.90
2011,05,29,06,19,10.90
2011,05,29,06,20,10.90
2011,05,29,06,21,10.90
2011,05,29,06,22,10.90
2011,05,29,06,23,10.90
2011,05,29,06,24,10.90
2011,05,29,06,25,11.00
2011,05,29,06,26,11.00
2011,05,29,06,27,11.00
2011,05,29,06,28,11.00
2011,05,29,06,29,11.10
2011,05,29,06,30,11.10
2011,05,29,06,31,11.10
2011,05,29,06,32,11.10
2011,05,29,06,33,11.10
2011,05,29,06,34,11.10
2011,05,29,06,35,11.20
2011,05,29,06,36,11.20
2011,05,29,06,37,11.20
2011,05,29,06,38,11.20
2011,05,29,06,39,11.20
2011,05,29,06,40,11.30
2011,05,29,06,41,11.30
2011,05,29,06,42,11.30
2011,05,29,06,43,11.30
2011,05,29,06,44,11.30
2011,05,29,06,45,11.30
2011,05,29,06,46,11.30
2011,05,29,06,47,11.40
2011,05,29,06,48,11.40
2011,05,29,06,49,11.40
2011,05,29,06,50,11.40
2011,05,29,06,51,11.40
2011,05,29,06,52,11.40
2011,05,29,06,53,11.40
2011,05,29,06,54,11.40
2011,05,29,06,55,11.40
2011,05,29,06,56,11.40
2011,05,29,06,57,11.40
2011,05,29,06,58,11.40
2011,05,29,06,59,11.50
2011,05,29,07,00,11.50
2011,05,29,07,01,11.50
2011,05,29,07,02,11.50
2011,05,29,07,03,11.50
2011,05,29,07,04,11.50
2011,05,29,07,05,11.50
2011,05,29,07,06,11.50
2011,05,29,07,07,11.50
2011,05,29,07,08,11.50
2011,05,29,07,09,11.50
2011,05,29,07,10,11.50
2011,05,29,07,11,11.50
2011,05,29,07,12,11.50
2011,05,29,07,13,11.50
2011,05,29,07,14,11.50
2011,05,29,07,15,11.50
2011,05,29,07,16,11.50
2011,05,29,07,17,11.50
2011,05,29,07,18,11.50
2011,05,29,07,19,11.50
2011,05,29,07,20,11.50
2011,05,29,07,21,11.50
2011,05,29,07,22,11.50
2011,05,29,07,23,11.50
2011,05,29,07,24,11.60
2011,05,29,07,25,11.60
2011,05,29,07,26,11.60
2011,05,29,07,27,11.60
2011,05,29,07,28,11.60
2011,05,29,07,29,11.60
2011,05,29,07,30,11.70
2011,05,29,07,31,11.70
2011,05,29,07,32,11.70
2011,05,29,07,33,11.70
2011,05,29,07,34,11.70
2011,05,29,07,35,11.70
2011,05,29,07,36,11.80
2011,05,29,07,37,11.80
2011,05,29,07,38,11.80
2011,05,29,07,39,11.90
2011,05,29,07,40,11.90
2011,05,29,07,41,11.90
2011,05,29,07,42,12.00
2011,05,29,07,43,12.00
2011,05,29,07,44,12.00
2011,05,29,07,45,12.00
2011,05,29,07,46,12.10
2011,05,29,07,47,12.10
2011,05,29,07,48,12.10
2011,05,29,07,49,12.10
2011,05,29,07,50,12.10
2011,05,29,07,51,12.10
2011,05,29,07,52,12.10
2011,05,29,07,53,12.10
2011,05,29,07,54,12.20
2011,05,29,07,55,12.20
2011,05,29,07,56,12.20
2011,05,29,07,57,12.20
2011,05,29,07,58,12.20
2011,05,29,07,59,12.20
2011,05,29,08,00,12.20
2011,05,29,08,01,12.20
2011,05,29,08,02,12.20
2011,05,29,08,03,12.20
2011,05,29,08,04,12.20
2011,05,29,08,05,12.30
2011,05,29,08,06,12.30
2011,05,29,08,07,12.30
2011,05,29,08,08,12.30
2011,05,29,08,09,12.30
2011,05,29,08,10,12.40
2011,05,29,08,11,12.40
2011,05,29,08,12,12.50
2011,05,29,08,13,12.60
2011,05,29,08,14,12.60
2011,05,29,08,15,12.60
2011,05,29,08,16,12.70
2011,05,29,08,17,12.70
2011,05,29,08,18,12.70
2011,05,29,08,19,12.70
2011,05,29,08,20,12.60
2011,05,29,08,21,12.60
2011,05,29,08,22,12.50
2011,05,29,08,23,12.50
2011,05,29,08,24,12.40
2011,05,29,08,25,12.40
2011,05,29,08,26,12.40
2011,05,29,08,27,12.40
2011,05,29,08,28,12.40
2011,05,29,08,29,12.30
2011,05,29,08,30,12.30
2011,05,29,08,31,12.30
2011,05,29,08,32,12.30
2011,05,29,08,33,12.30
2011,05,29,08,34,12.30
2011,05,29,08,35,12.30
2011,05,29,08,36,12.30
2011,05,29,08,37,12.20
2011,05,29,08,38,12.20
2011,05,29,08,39,12.20
2011,05,29,08,40,12.20
2011,05,29,08,41,12.10
2011,05,29,08,42,12.10
2011,05,29,08,43,12.10
2011,05,29,08,44,12.00
2011,05,29,08,45,12.00
2011,05,29,08,46,12.00
2011,05,29,08,47,12.10
2011,05,29,08,48,12.10
2011,05,29,08,49,12.20
2011,05,29,08,50,12.30
2011,05,29,08,51,12.30
2011,05,29,08,52,12.40
2011,05,29,08,53,12.50
2011,05,29,08,54,12.60
2011,05,29,08,55,12.70
2011,05,29,08,56,12.80
2011,05,29,08,57,12.90
2011,05,29,08,58,13.00
2011,05,29,08,59,13.10
2011,05,29,09,00,13.10
2011,05,29,09,01,13.30
2011,05,29,09,02,13.30
2011,05,29,09,03,13.40
2011,05,29,09,04,13.50
2011,05,29,09,05,13.60
2011,05,29,09,06,13.70
2011,05,29,09,07,13.80
2011,05,29,09,08,13.80
2011,05,29,09,09,13.90
2011,05,29,09,10,13.90
2011,05,29,09,11,13.90
2011,05,29,09,12,13.90
2011,05,29,09,13,13.90
2011,05,29,09,14,13.90
2011,05,29,09,15,13.90
2011,05,29,09,16,14.00
2011,05,29,09,17,14.00
2011,05,29,09,18,14.00
2011,05,29,09,19,14.10
2011,05,29,09,20,14.10
2011,05,29,09,21,14.10
2011,05,29,09,22,14.10
2011,05,29,09,23,14.20
2011,05,29,09,24,14.20
2011,05,29,09,25,14.30
2011,05,29,09,26,14.30
2011,05,29,09,27,14.40
2011,05,29,09,28,14.40
2011,05,29,09,29,14.50
2011,05,29,09,30,14.50
2011,05,29,09,31,14.70
2011,05,29,09,32,14.70
2011,05,29,09,33,14.80
2011,05,29,09,34,14.80
2011,05,29,09,35,14.80
2011,05,29,09,36,14.80
2011,05,29,09,37,14.70
2011,05,29,09,38,14.70
2011,05,29,09,39,14.70
2011,05,29,09,40,14.60
2011,05,29,09,41,14.60
2011,05,29,09,42,14.60
2011,05,29,09,43,14.50
2011,05,29,09,44,14.40
2011,05,29,09,45,14.40
2011,05,29,09,46,14.40
2011,05,29,09,47,14.40
2011,05,29,09,48,14.30
2011,05,29,09,49,14.30
2011,05,29,09,50,14.30
2011,05,29,09,51,14.30
2011,05,29,09,52,14.40
2011,05,29,09,53,14.40
2011,05,29,09,54,14.40
2011,05,29,09,55,14.50
2011,05,29,09,56,14.40
2011,05,29,09,57,14.40
2011,05,29,09,58,14.40
2011,05,29,09,59,14.40
2011,05,29,10,00,14.40
2011,05,29,10,01,14.40
2011,05,29,10,02,14.50
2011,05,29,10,03,14.60
2011,05,29,10,04,14.70
2011,05,29,10,05,14.70
2011,05,29,10,06,14.80
2011,05,29,10,07,14.80
2011,05,29,10,08,14.90
2011,05,29,10,09,14.90
2011,05,29,10,10,15.00
2011,05,29,10,11,15.00
2011,05,29,10,12,14.90
2011,05,29,10,13,14.90
2011,05,29,10,14,14.90
2011,05,29,10,15,15.00
2011,05,29,10,16,15.00
2011,05,29,10,17,15.00
2011,05,29,10,18,15.00
2011,05,29,10,19,15.00
2011,05,29,10,20,15.00
2011,05,29,10,21,15.00
2011,05,29,10,22,15.00
2011,05,29,10,23,15.00
2011,05,29,10,24,14.80
2011,05,29,10,25,14.70
2011,05,29,10,26,14.60
2011,05,29,10,27,14.40
2011,05,29,10,28,14.30
2011,05,29,10,29,14.30
2011,05,29,10,30,14.20
2011,05,29,10,31,14.20
2011,05,29,10,32,14.10
2011,05,29,10,33,14.10
2011,05,29,10,34,14.20
2011,05,29,10,35,14.20
2011,05,29,10,36,14.30
2011,05,29,10,37,14.30
2011,05,29,10,38,14.40
2011,05,29,10,39,14.50
2011,05,29,10,40,14.50
2011,05,29,10,41,14.60
2011,05,29,10,42,14.60
2011,05,29,10,43,14.60
2011,05,29,10,44,14.60
2011,05,29,10,45,14.70
2011,05,29,10,46,14.70
2011,05,29,10,47,14.80
2011,05,29,10,48,14.80
2011,05,29,10,49,14.80
2011,05,29,10,50,14.80
2011,05,29,10,51,14.80
2011,05,29,10,52,14.90
2011,05,29,10,53,14.80
2011,05,29,10,54,14.80
2011,05,29,10,55,14.70
2011,05,29,10,56,14.60
2011,05,29,10,57,14.60
2011,05,29,10,58,14.50
2011,05,29,10,59,14.50
2011,05,29,11,00,14.50
2011,05,29,11,01,14.60
2011,05,29,11,02,14.60
2011,05,29,11,03,14.70
2011,05,29,11,04,14.80
2011,05,29,11,05,14.80
2011,05,29,11,06,14.90
2011,05,29,11,07,15.00
2011,05,29,11,08,15.00
2011,05,29,11,09,15.00
2011,05,29,11,10,15.00
2011,05,29,11,11,15.20
2011,05,29,11,12,15.30
2011,05,29,11,13,15.50
2011,05,29,11,14,15.60
2011,05,29,11,15,15.70
2011,05,29,11,16,15.70
2011,05,29,11,17,15.80
2011,05,29,11,18,15.90
2011,05,29,11,19,16.00
2011,05,29,11,20,16.00
2011,05,29,11,21,16.10
2011,05,29,11,22,16.10
2011,05,29,11,23,16.10
2011,05,29,11,24,16.00
2011,05,29,11,25,16.00
2011,05,29,11,26,15.90
2011,05,29,11,27,15.90
2011,05,29,11,28,15.80
2011,05,29,11,29,15.80
2011,05,29,11,30,15.80
2011,05,29,11,31,15.80
2011,05,29,11,32,15.80
2011,05,29,11,33,15.80
2011,05,29,11,34,15.90
2011,05,29,11,35,16.00
2011,05,29,11,36,16.10
2011,05,29,11,37,16.20
2011,05,29,11,38,16.30
2011,05,29,11,39,16.40
2011,05,29,11,40,16.50
2011,05,29,11,41,16.70
2011,05,29,11,42,16.80
2011,05,29,11,43,16.90
2011,05,29,11,44,16.90
2011,05,29,11,45,16.90
2011,05,29,11,46,16.90
2011,05,29,11,47,16.80
2011,05,29,11,48,16.70
2011,05,29,11,49,16.60
2011,05,29,11,50,16.50
2011,05,29,11,51,16.40
2011,05,29,11,52,16.10
2011,05,29,11,53,16.00
2011,05,29,11,54,16.00
2011,05,29,11,55,15.90
2011,05,29,11,56,15.90
2011,05,29,11,57,15.90
2011,05,29,11,58,15.80
2011,05,29,11,59,15.60
2011,05,29,12,00,15.40
2011,05,29,12,01,15.40
2011,05,29,12,02,15.50
2011,05,29,12,03,15.50
2011,05,29,12,04,15.60
2011,05,29,12,05,15.70
2011,05,29,12,06,15.80
2011,05,29,12,07,15.80
2011,05,29,12,08,15.80
2011,05,29,12,09,15.80
2011,05,29,12,10,15.80
2011,05,29,12,11,15.90
2011,05,29,12,12,15.90
2011,05,29,12,13,16.00
2011,05,29,12,14,16.00
2011,05,29,12,15,16.00
2011,05,29,12,16,16.10
2011,05,29,12,17,16.10
2011,05,29,12,18,16.10
2011,05,29,12,19,16.10
2011,05,29,12,20,16.10
2011,05,29,12,21,16.10
2011,05,29,12,22,16.20
2011,05,29,12,23,16.20
2011,05,29,12,24,16.20
2011,05,29,12,25,16.20
2011,05,29,12,26,16.10
2011,05,29,12,27,16.00
2011,05,29,12,28,16.00
2011,05,29,12,29,16.00
2011,05,29,12,30,16.10
2011,05,29,12,31,16.10
2011,05,29,12,32,16.10
2011,05,29,12,33,16.10
2011,05,29,12,34,16.10
2011,05,29,12,35,16.10
2011,05,29,12,36,16.10
2011,05,29,12,37,16.00
2011,05,29,12,38,15.90
2011,05,29,12,39,15.90
2011,05,29,12,40,16.00
2011,05,29,12,41,16.00
2011,05,29,12,42,16.00
2011,05,29,12,43,16.00
2011,05,29,12,44,16.10
2011,05,29,12,45,16.10
2011,05,29,12,46,16.10
2011,05,29,12,47,16.20
2011,05,29,12,48,16.20
2011,05,29,12,49,16.30
2011,05,29,12,50,16.30
2011,05,29,12,51,16.30
2011,05,29,12,52,16.30
2011,05,29,12,53,16.20
2011,05,29,12,54,16.20
2011,05,29,12,55,16.30
2011,05,29,12,56,16.30
2011,05,29,12,57,16.40
2011,05,29,12,58,16.40
2011,05,29,12,59,16.30
2011,05,29,13,00,16.30
2011,05,29,13,01,16.30
2011,05,29,13,02,16.30
2011,05,29,13,03,16.40
2011,05,29,13,04,16.50
2011,05,29,13,05,16.50
2011,05,29,13,06,16.50
2011,05,29,13,07,16.50
2011,05,29,13,08,16.60
2011,05,29,13,09,16.60
2011,05,29,13,10,16.60
2011,05,29,13,11,16.60
2011,05,29,13,12,16.70
2011,05,29,13,13,16.70
2011,05,29,13,14,16.80
2011,05,29,13,15,16.90
2011,05,29,13,16,16.90
2011,05,29,13,17,16.90
2011,05,29,13,18,16.80
2011,05,29,13,19,16.70
2011,05,29,13,20,16.60
2011,05,29,13,21,16.50
2011,05,29,13,22,16.30
2011,05,29,13,23,16.20
2011,05,29,13,24,16.20
2011,05,29,13,25,16.20
2011,05,29,13,26,16.20
2011,05,29,13,27,16.20
2011,05,29,13,28,16.30
2011,05,29,13,29,16.30
2011,05,29,13,30,16.10
2011,05,29,13,31,15.90
2011,05,29,13,32,15.80
2011,05,29,13,33,15.80
2011,05,29,13,34,15.80
2011,05,29,13,35,15.80
2011,05,29,13,36,15.70
2011,05,29,13,37,15.70
2011,05,29,13,38,15.80
2011,05,29,13,39,15.90
2011,05,29,13,40,16.00
2011,05,29,13,41,16.10
2011,05,29,13,42,16.30
2011,05,29,13,43,16.50
2011,05,29,13,44,16.70
2011,05,29,13,45,16.80
2011,05,29,13,46,16.90
2011,05,29,13,47,17.00
2011,05,29,13,48,16.90
2011,05,29,13,49,16.90
2011,05,29,13,50,17.00
2011,05,29,13,51,17.10
2011,05,29,13,52,17.20
2011,05,29,13,53,17.30
2011,05,29,13,54,17.40
2011,05,29,13,55,17.50
2011,05,29,13,56,17.60
2011,05,29,13,57,17.70
2011,05,29,13,58,17.70
2011,05,29,13,59,17.70
2011,05,29,14,00,17.70
2011,05,29,14,01,17.70
2011,05,29,14,02,17.80
2011,05,29,14,03,17.90
2011,05,29,14,04,17.90
2011,05,29,14,05,17.90
2011,05,29,14,06,17.90
2011,05,29,14,07,17.90
2011,05,29,14,08,17.80
2011,05,29,14,09,17.80
2011,05,29,14,10,17.80
2011,05,29,14,11,17.80
2011,05,29,14,12,17.70
2011,05,29,14,13,17.70
2011,05,29,14,14,17.60
2011,05,29,14,15,17.50
2011,05,29,14,16,17.50
2011,05,29,14,17,17.40
2011,05,29,14,18,17.20
2011,05,29,14,19,17.10
2011,05,29,14,20,17.10
2011,05,29,14,21,17.20
2011,05,29,14,22,17.20
2011,05,29,14,23,17.20
2011,05,29,14,24,17.30
2011,05,29,14,25,17.30
2011,05,29,14,26,17.20
2011,05,29,14,27,17.20
2011,05,29,14,28,17.20
2011,05,29,14,29,17.30
2011,05,29,14,30,17.40
2011,05,29,14,31,17.40
2011,05,29,14,32,17.40
2011,05,29,14,33,17.30
2011,05,29,14,34,17.30
2011,05,29,14,35,17.40
2011,05,29,14,36,17.60
2011,05,29,14,37,17.80
2011,05,29,14,38,18.00
2011,05,29,14,39,18.00
2011,05,29,14,40,18.00
2011,05,29,14,41,17.90
2011,05,29,14,42,17.90
2011,05,29,14,43,17.90
2011,05,29,14,44,17.80
2011,05,29,14,45,17.50
2011,05,29,14,46,17.30
2011,05,29,14,47,17.20
2011,05,29,14,48,17.10
2011,05,29,14,49,17.20
2011,05,29,14,50,17.30
2011,05,29,14,51,17.30
2011,05,29,14,52,17.30
2011,05,29,14,53,17.10
2011,05,29,14,54,17.00
2011,05,29,14,55,16.90
2011,05,29,14,56,16.80
2011,05,29,14,57,16.70
2011,05,29,14,58,16.70
2011,05,29,14,59,16.70
2011,05,29,15,00,16.70
2011,05,29,15,01,16.60
2011,05,29,15,02,16.60
2011,05,29,15,03,16.60
2011,05,29,15,04,16.70
2011,05,29,15,05,16.70
2011,05,29,15,06,16.80
2011,05,29,15,07,16.90
2011,05,29,15,08,16.90
2011,05,29,15,09,16.90
2011,05,29,15,10,16.80
2011,05,29,15,11,16.90
2011,05,29,15,12,16.90
2011,05,29,15,13,16.90
2011,05,29,15,14,17.00
2011,05,29,15,15,17.00
2011,05,29,15,16,17.00
2011,05,29,15,17,17.00
2011,05,29,15,18,17.10
2011,05,29,15,19,17.20
2011,05,29,15,20,17.20
2011,05,29,15,21,17.30
2011,05,29,15,22,17.50
2011,05,29,15,23,17.60
2011,05,29,15,24,17.60
2011,05,29,15,25,17.50
2011,05,29,15,26,17.40
2011,05,29,15,27,17.30
2011,05,29,15,28,17.30
2011,05,29,15,29,17.30
2011,05,29,15,30,17.30
2011,05,29,15,31,17.30
2011,05,29,15,32,17.20
2011,05,29,15,33,17.20
2011,05,29,15,34,17.20
2011,05,29,15,35,17.20
2011,05,29,15,36,17.20
2011,05,29,15,37,17.10
2011,05,29,15,38,17.10
2011,05,29,15,39,17.10
2011,05,29,15,40,17.20
2011,05,29,15,41,17.40
2011,05,29,15,42,17.50
2011,05,29,15,43,17.60
2011,05,29,15,44,17.60
2011,05,29,15,45,17.70
2011,05,29,15,46,17.70
2011,05,29,15,47,17.80
2011,05,29,15,48,17.90
2011,05,29,15,49,17.90
2011,05,29,15,50,17.80
2011,05,29,15,51,17.90
2011,05,29,15,52,17.90
2011,05,29,15,53,17.90
2011,05,29,15,54,17.90
2011,05,29,15,55,17.90
2011,05,29,15,56,17.90
2011,05,29,15,57,17.90
2011,05,29,15,58,17.80
2011,05,29,15,59,17.80
2011,05,29,16,00,17.80
2011,05,29,16,01,17.80
2011,05,29,16,02,17.80
2011,05,29,16,03,17.80
2011,05,29,16,04,17.70
2011,05,29,16,05,17.80
2011,05,29,16,06,17.90
2011,05,29,16,07,18.00
2011,05,29,16,08,18.00
2011,05,29,16,09,18.10
2011,05,29,16,10,18.10
2011,05,29,16,11,18.20
2011,05,29,16,12,18.30
2011,05,29,16,13,18.40
2011,05,29,16,14,18.40
2011,05,29,16,15,18.30
2011,05,29,16,16,18.30
2011,05,29,16,17,18.30
2011,05,29,16,18,18.30
2011,05,29,16,19,18.30
2011,05,29,16,20,18.30
2011,05,29,16,21,18.30
2011,05,29,16,22,18.40
2011,05,29,16,23,18.40
2011,05,29,16,24,18.40
2011,05,29,16,25,18.50
2011,05,29,16,26,18.50
2011,05,29,16,27,18.50
2011,05,29,16,28,18.40
2011,05,29,16,29,18.40
2011,05,29,16,30,18.40
2011,05,29,16,31,18.30
2011,05,29,16,32,18.30
2011,05,29,16,33,18.20
2011,05,29,16,34,18.20
2011,05,29,16,35,18.10
2011,05,29,16,36,18.10
2011,05,29,16,37,18.00
2011,05,29,16,38,17.90
2011,05,29,16,39,17.80
2011,05,29,16,40,17.80
2011,05,29,16,41,17.80
2011,05,29,16,42,17.90
2011,05,29,16,43,18.00
2011,05,29,16,44,18.00
2011,05,29,16,45,18.10
2011,05,29,16,46,18.20
2011,05,29,16,47,18.20
2011,05,29,16,48,18.10
2011,05,29,16,49,18.10
2011,05,29,16,50,18.10
2011,05,29,16,51,18.10
2011,05,29,16,52,18.20
2011,05,29,16,53,18.20
2011,05,29,16,54,18.20
2011,05,29,16,55,18.10
2011,05,29,16,56,18.10
2011,05,29,16,57,18.00
2011,05,29,16,58,18.00
2011,05,29,16,59,18.00
2011,05,29,17,00,18.00
2011,05,29,17,01,17.90
2011,05,29,17,02,17.80
2011,05,29,17,03,17.80
2011,05,29,17,04,17.90
2011,05,29,17,05,17.90
2011,05,29,17,06,17.90
2011,05,29,17,07,17.90
2011,05,29,17,08,17.90
2011,05,29,17,09,17.80
2011,05,29,17,10,17.70
2011,05,29,17,11,17.70
2011,05,29,17,12,17.60
2011,05,29,17,13,17.50
2011,05,29,17,14,17.50
2011,05,29,17,15,17.50
2011,05,29,17,16,17.40
2011,05,29,17,17,17.50
2011,05,29,17,18,17.50
2011,05,29,17,19,17.50